1530043200.73,38312,16.38,74042.5,-0.79,-4.21,-4.05,0,*63
1530043201.95,38313,16.38,74042.5,-0.79,-4.17,-3.91,0,*6D
1530043203.16,38314,16.38,74038.0,-0.79,-4.09,-3.87,0,*62
1530043204.35,38315,16.38,74042.0,-0.77,-4.09,-4.05,0,*60
1530043205.56,38316,16.38,74040.0,-0.79,-4.05,-3.91,0,*6B
1530043206.78,38317,16.38,74042.0,-0.79,-4.05,-3.91,0,*6A
1530043208.0,38318,16.38,74042.0,-0.79,-4.09,-4.05,0,*63
1530043209.22,38319,16.38,74042.8,-0.77,-4.01,-4.05,0,*64
1530043210.44,38320,16.38,74038.8,-0.77,-4.01,-4.09,0,*62
1530043211.64,38321,16.38,74042.5,-0.77,-3.91,-4.09,0,*6D
1530043212.84,38322,16.38,74042.3,-0.77,-3.91,-3.91,0,*68
1530043214.03,38323,16.44,74042.0,-0.77,-3.87,-3.91,0,*6E
1530043215.22,38324,16.38,74042.0,-0.77,-3.87,-3.87,0,*6E
1530043216.41,38325,16.38,74040.5,-0.77,-3.87,-3.87,0,*6F
1530043217.6,38326,16.38,74038.0,-0.77,-3.87,-3.79,0,*6D
1530043218.8,38327,16.38,74042.5,-0.77,-3.79,-3.79,0,*6D
1530043220.01,38328,16.38,74036.8,-0.77,-3.87,-3.67,0,*6C
1530043221.2,38329,16.38,74042.3,-0.77,-3.87,-3.75,0,*6E
1530043222.41,38330,16.38,74038.3,-0.77,-3.87,-3.67,0,*65
1530043223.61,38331,16.38,74038.8,-0.77,-3.91,-3.75,0,*60
1530043224.83,38332,16.38,74036.8,-0.77,-4.01,-3.75,0,*6D
1530043226.05,38333,16.38,74042.5,-0.77,-4.01,-3.75,0,*6C
1530043227.25,38334,16.38,74040.3,-0.77,-3.91,-3.75,0,*65
1530043228.49,38335,16.38,74038.5,-0.75,-3.95,-3.71,0,*66
1530043229.71,38336,16.44,74042.5,-0.77,-4.01,-3.75,0,*69
1530043230.98,38337,16.38,74038.8,-0.75,-4.01,-3.63,0,*6D
1530043232.19,38338,16.38,74040.3,-0.77,-4.05,-3.59,0,*6D
1530043233.44,38339,16.38,74042.0,-0.75,-3.95,-3.59,0,*60
1530043234.65,38340,16.44,74044.3,-0.77,-3.91,-3.63,0,*61
1530043235.92,38341,16.38,74040.5,-0.75,-4.01,-3.59,0,*65
1530043237.16,38342,16.38,74038.8,-0.75,-4.05,-3.63,0,*6B
1530043238.39,38343,16.38,74042.8,-0.75,-4.05,-3.71,0,*69
1530043239.62,38344,16.38,74040.3,-0.75,-4.17,-3.71,0,*6D
1530043240.82,38345,16.38,74036.8,-0.77,-4.21,-3.75,0,*6F
1530043242.05,38346,16.38,74040.5,-0.75,-4.17,-3.71,0,*6F
1530043243.28,38347,16.44,74042.5,-0.75,-4.17,-3.71,0,*6E
1530043244.48,38348,16.38,74040.3,-0.77,-4.21,-3.75,0,*62
1530043245.71,38349,16.38,74042.0,-0.75,-4.17,-3.63,0,*63
1530043246.95,38350,16.38,74042.3,-0.75,-4.25,-3.63,0,*6A
1530043248.16,38351,16.38,74038.0,-0.77,-4.33,-3.67,0,*6A
1530043249.39,38352,16.38,74042.5,-0.75,-4.29,-3.63,0,*64
1530043250.6,38353,16.38,74038.5,-0.77,-4.41,-3.67,0,*6D
1530043251.83,38354,16.38,74038.8,-0.75,-4.37,-3.51,0,*6C
1530043253.03,38355,16.38,74038.0,-0.77,-4.45,-3.55,0,*6E
1530043254.26,38356,16.38,74038.3,-0.75,-4.49,-3.47,0,*60
1530043255.46,38357,16.38,74042.8,-0.77,-4.65,-3.51,0,*6A
1530043256.69,38358,16.38,74038.5,-0.75,-4.65,-3.47,0,*60
1530043257.9,38359,16.38,74040.0,-0.77,-4.73,-3.39,0,*6D
1530043259.11,38360,16.38,74040.5,-0.77,-4.85,-3.39,0,*6E
1530043260.35,38361,16.38,74036.5,-0.75,-4.89,-3.39,0,*61
1530043261.59,38362,16.38,74042.8,-0.75,-5.03,-3.35,0,*6D
1530043262.83,38363,16.38,74042.0,-0.77,-5.23,-3.43,0,*6D
1530043264.06,38364,16.38,74038.8,-0.75,-5.27,-3.39,0,*61
1530043265.3,38365,16.38,74042.0,-0.77,-5.31,-3.51,0,*6B
1530043266.56,38366,16.38,74038.3,-0.75,-5.31,-3.47,0,*6D
1530043267.77,38367,16.38,74040.5,-0.77,-5.47,-3.63,0,*69
1530043268.98,38368,16.38,74042.3,-0.77,-5.55,-3.67,0,*61
1530043270.24,38369,16.38,74038.8,-0.75,-5.61,-3.63,0,*61
1530043271.45,38370,16.38,74038.3,-0.77,-5.65,-3.75,0,*68
1530043272.66,38371,16.38,74040.8,-0.77,-5.73,-3.75,0,*6E
1530043273.93,38372,16.38,74040.0,-0.75,-5.85,-3.71,0,*62
1530043275.11,38373,16.44,74042.3,-0.77,-5.97,-3.87,0,*6B
1530043276.33,38374,16.38,74038.3,-0.75,-5.97,-3.83,0,*6A
1530043277.52,38375,16.38,74040.3,-0.77,-6.01,-4.05,0,*6C
1530043278.71,38376,16.38,74042.0,-0.77,-6.09,-4.17,0,*64
1530043279.93,38377,16.38,74040.3,-0.75,-6.09,-4.29,0,*6A
1530043281.15,38378,16.38,74042.0,-0.75,-6.09,-4.41,0,*6B
1530043282.36,38379,16.38,74042.0,-0.75,-6.05,-4.49,0,*6E
1530043283.58,38380,16.38,74038.8,-0.77,-5.89,-4.53,0,*66
1530043284.8,38381,16.38,74036.5,-0.77,-5.77,-4.57,0,*62
1530043286.02,38382,16.38,74038.0,-0.75,-5.51,-4.53,0,*63
1530043287.2,38383,16.38,74040.0,-0.77,-5.43,-4.45,0,*64
1530043288.42,38384,16.38,74040.3,-0.77,-5.31,-4.33,0,*67
1530043289.64,38385,16.38,74042.8,-0.77,-5.23,-4.21,0,*66
1530043290.85,38386,16.38,74038.5,-0.73,-5.27,-4.05,0,*63
1530043292.09,38387,16.38,74040.5,-0.75,-5.27,-3.87,0,*69
1530043293.27,38388,16.38,74040.0,-0.77,-5.43,-3.87,0,*66
1530043294.46,38389,16.38,74040.3,-0.77,-5.47,-3.87,0,*63
1530043295.65,38390,16.38,74042.0,-0.77,-5.47,-3.79,0,*6A
1530043296.87,38391,16.38,74036.0,-0.75,-5.51,-3.75,0,*62
1530043298.07,38392,16.38,74038.8,-0.77,-5.55,-3.79,0,*6B
1530043299.26,38393,16.38,74038.5,-0.77,-5.55,-3.75,0,*66
1530043300.45,38394,16.38,74038.8,-0.77,-5.47,-3.75,0,*62
1530043301.67,38395,16.38,74038.5,-0.77,-5.61,-3.75,0,*67
1530043302.88,38396,16.38,74040.3,-0.77,-5.65,-3.75,0,*60
1530043304.1,38397,16.38,74036.8,-0.77,-5.65,-3.75,0,*61
1530043305.31,38398,16.44,74042.5,-0.77,-5.73,-3.75,0,*69
1530043306.55,38399,16.38,74040.5,-0.79,-5.77,-3.75,0,*62
1530043307.77,38400,16.38,74038.8,-0.77,-5.89,-3.75,0,*6A
1530043308.96,38401,16.38,74040.5,-0.77,-6.01,-3.87,0,*65
1530043310.15,38402,16.38,74038.0,-0.77,-6.09,-3.79,0,*6F
1530043311.34,38403,16.38,74038.5,-0.77,-6.09,-3.79,0,*6E
1530043312.53,38404,16.38,74042.8,-0.77,-6.13,-3.79,0,*62
1530043313.72,38405,16.38,74036.3,-0.77,-6.39,-3.79,0,*6B
1530043314.93,38406,16.38,74038.5,-0.77,-6.63,-3.79,0,*67
1530043316.12,38407,16.38,74038.0,-0.77,-6.89,-3.87,0,*63
1530043317.33,38408,16.38,74038.3,-0.77,-7.05,-4.05,0,*64
1530043318.54,38409,16.38,74040.8,-0.77,-7.43,-4.05,0,*67
1530043319.76,38410,16.38,74038.3,-0.77,-7.73,-4.17,0,*6F
1530043321.0,38411,16.38,74042.8,-0.79,-7.95,-4.29,0,*65
1530043322.22,38412,16.38,74040.5,-0.77,-8.07,-4.53,0,*61
1530043323.44,38413,16.38,74038.3,-0.77,-8.11,-4.53,0,*67
1530043324.69,38414,16.38,74038.8,-0.79,-8.07,-4.57,0,*6D
1530043325.96,38415,16.38,74042.8,-0.79,-8.07,-4.69,0,*61
1530043327.23,38416,16.38,74038.5,-0.79,-7.95,-4.69,0,*66
1530043328.47,38417,16.38,74040.3,-0.79,-7.83,-4.77,0,*6F
1530043329.74,38418,16.38,74036.5,-0.79,-7.69,-4.81,0,*6D
1530043331.01,38419,16.38,74038.0,-0.79,-7.57,-4.81,0,*61
1530043332.28,38420,16.38,74038.8,-0.79,-7.31,-4.81,0,*6B
1530043333.53,38421,16.38,74038.3,-0.79,-7.19,-4.81,0,*60
1530043334.8,38422,16.38,74038.8,-0.79,-6.93,-4.77,0,*69
1530043336.04,38423,16.38,74038.5,-0.79,-6.81,-4.69,0,*64
1530043337.28,38424,16.38,74038.5,-0.79,-6.69,-4.77,0,*6A
1530043338.5,38425,16.38,74038.0,-0.79,-6.69,-4.57,0,*69
1530043339.71,38426,16.38,74038.8,-0.79,-6.69,-4.57,0,*6A
1530043340.93,38427,16.38,74036.3,-0.79,-6.55,-4.57,0,*64
1530043342.16,38428,16.38,74038.5,-0.79,-6.51,-4.57,0,*6F
1530043343.38,38429,16.38,74036.8,-0.79,-6.55,-4.57,0,*6A
1530043344.58,38430,16.38,74040.5,-0.81,-6.59,-4.57,0,*69
1530043345.8,38431,16.38,74038.3,-0.79,-6.55,-4.53,0,*67
1530043347.0,38432,16.38,74038.3,-0.77,-6.63,-4.45,0,*68
1530043348.24,38433,16.38,74036.8,-0.79,-6.63,-4.41,0,*63
1530043349.48,38434,16.38,74038.5,-0.79,-6.63,-4.33,0,*61
1530043350.69,38435,16.38,74042.0,-0.79,-6.69,-4.33,0,*6A
1530043351.9,38436,16.38,74038.3,-0.79,-6.69,-4.41,0,*6C
1530043353.12,38437,16.38,74040.0,-0.79,-6.77,-4.41,0,*62
1530043354.31,38438,16.38,74038.5,-0.81,-6.81,-4.45,0,*67
1530043355.5,38439,16.38,74036.5,-0.77,-6.69,-4.33,0,*68
1530043356.69,38440,16.38,74038.0,-0.77,-6.77,-4.41,0,*6C
1530043357.91,38441,16.38,74040.5,-0.79,-6.77,-4.33,0,*66
1530043359.1,38442,16.38,74036.3,-0.81,-6.81,-4.45,0,*6A
1530043360.32,38443,16.38,74036.0,-0.79,-6.77,-4.41,0,*61
1530043361.52,38444,16.38,74036.3,-0.81,-6.81,-4.37,0,*69
1530043362.73,38445,16.38,74038.8,-0.79,-6.89,-4.41,0,*66
1530043363.95,38446,16.38,74036.8,-0.77,-7.01,-4.41,0,*6A
1530043365.19,38447,16.38,74034.3,-0.79,-7.01,-4.41,0,*65
1530043366.39,38448,16.38,74036.5,-0.81,-7.15,-4.53,0,*6B
1530043367.63,38449,16.38,74038.8,-0.79,-7.27,-4.53,0,*6C
1530043368.87,38450,16.38,74038.0,-0.79,-7.27,-4.53,0,*64
1530043370.09,38451,16.38,74038.3,-0.77,-7.43,-4.53,0,*69
1530043371.29,38452,16.38,74038.0,-0.81,-7.49,-4.57,0,*6D
1530043372.53,38453,16.38,74036.3,-0.79,-7.57,-4.57,0,*64
1530043373.78,38454,16.38,74036.3,-0.79,-7.57,-4.65,0,*62
1530043375.06,38455,16.38,74040.8,-0.79,-7.73,-4.69,0,*69
1530043376.33,38456,16.38,74040.3,-0.79,-7.73,-4.77,0,*65
1530043377.57,38457,16.38,74040.5,-0.79,-7.87,-4.85,0,*62
1530043378.82,38458,16.38,74036.0,-0.79,-7.87,-4.85,0,*6D
1530043380.09,38459,16.38,74036.5,-0.79,-7.95,-4.85,0,*6F
1530043381.33,38460,16.38,74038.5,-0.81,-8.03,-5.03,0,*6D
1530043382.57,38461,16.38,74036.3,-0.79,-7.99,-4.99,0,*65
1530043383.79,38462,16.38,74036.5,-0.81,-8.17,-5.15,0,*6D
1530043385.01,38463,16.38,74036.0,-0.81,-8.17,-5.15,0,*6C
1530043386.24,38464,16.38,74038.8,-0.81,-8.17,-5.15,0,*6B
1530043387.51,38465,16.38,74038.8,-0.79,-8.11,-5.19,0,*67
1530043388.73,38466,16.38,74042.0,-0.81,-8.11,-5.35,0,*6D
1530043389.92,38467,16.38,74036.5,-0.81,-8.17,-5.35,0,*6A
1530043391.19,38468,16.38,74038.3,-0.79,-7.99,-5.31,0,*6F
1530043392.43,38469,16.38,74036.5,-0.79,-7.95,-5.35,0,*66
1530043393.65,38470,16.38,74038.3,-0.81,-7.91,-5.39,0,*61
1530043394.86,38471,16.38,74038.8,-0.81,-7.91,-5.39,0,*60
1530043396.08,38472,16.38,74038.8,-0.81,-7.77,-5.35,0,*67
1530043397.3,38473,16.38,74038.3,-0.81,-7.77,-5.39,0,*6A
1530043398.54,38474,16.38,74038.3,-0.79,-7.69,-5.35,0,*69
1530043399.76,38475,16.38,74036.0,-0.81,-7.73,-5.35,0,*64
1530043401.0,38476,16.38,74038.5,-0.79,-7.69,-5.35,0,*6B
1530043402.22,38477,16.38,74036.8,-0.81,-7.73,-5.39,0,*6A
1530043403.5,38478,16.38,74038.3,-0.79,-7.73,-5.31,0,*6A
1530043404.71,38479,16.38,74036.3,-0.81,-7.77,-5.39,0,*60
1530043405.93,38480,16.38,74034.3,-0.79,-7.87,-5.35,0,*62
1530043407.15,38481,16.38,74036.3,-0.79,-7.87,-5.35,0,*63
1530043408.36,38482,16.38,74042.0,-0.81,-8.03,-5.39,0,*68
1530043409.55,38483,16.38,74038.5,-0.81,-8.17,-5.39,0,*6C
1530043410.75,38484,16.38,74038.0,-0.81,-8.29,-5.51,0,*68
1530043411.94,38485,16.38,74038.8,-0.81,-8.33,-5.51,0,*62
1530043413.19,38486,16.38,74036.5,-0.79,-8.37,-5.61,0,*61
1530043414.43,38487,16.38,74038.3,-0.79,-8.55,-5.73,0,*67
1530043415.64,38488,16.38,74038.8,-0.81,-8.59,-5.77,0,*67
1530043416.86,38489,16.38,74036.8,-0.81,-8.59,-5.81,0,*6F
1530043418.09,38490,16.38,74038.0,-0.81,-8.67,-5.89,0,*62
1530043419.27,38491,16.38,74038.5,-0.81,-8.59,-6.01,0,*6D
1530043420.46,38492,16.38,74038.3,-0.81,-8.59,-6.13,0,*6D
1530043421.68,38493,16.38,74034.0,-0.83,-8.55,-6.13,0,*62
1530043422.88,38494,16.38,74036.8,-0.81,-8.45,-6.05,0,*61
1530043424.07,38495,16.38,74038.3,-0.81,-8.41,-6.13,0,*63
1530043425.25,38496,16.38,74038.3,-0.81,-8.33,-6.13,0,*65
1530043426.44,38497,16.38,74038.5,-0.81,-8.29,-6.13,0,*6F
1530043427.63,38498,16.38,74038.3,-0.81,-8.25,-6.13,0,*6C
1530043428.82,38499,16.38,74036.5,-0.81,-8.25,-6.13,0,*6D
1530043430.04,38500,16.38,74036.3,-0.81,-8.11,-6.13,0,*6B
1530043431.25,38501,16.38,74036.3,-0.81,-8.03,-6.13,0,*69
1530043432.47,38502,16.38,74038.0,-0.81,-7.99,-6.13,0,*66
1530043433.68,38503,16.38,74038.5,-0.81,-7.91,-6.05,0,*68
1530043434.87,38504,16.38,74032.8,-0.81,-7.87,-6.05,0,*68
1530043436.06,38505,16.38,74036.5,-0.81,-7.87,-6.01,0,*6D
1530043437.25,38506,16.38,74036.3,-0.81,-7.87,-6.05,0,*6A
1530043438.46,38507,16.38,74038.5,-0.81,-7.77,-6.05,0,*64
1530043439.68,38508,16.38,74038.8,-0.81,-7.73,-6.01,0,*6B
1530043440.9,38509,16.38,74034.3,-0.81,-7.73,-6.05,0,*6E
1530043442.14,38510,16.38,74036.0,-0.83,-7.77,-6.01,0,*64
1530043443.39,38511,16.38,74038.3,-0.83,-7.73,-6.01,0,*61
1530043444.63,38512,16.38,74034.3,-0.83,-7.73,-6.01,0,*62
1530043445.85,38513,16.38,74040.3,-0.81,-7.73,-6.01,0,*61
1530043447.13,38514,16.38,74032.5,-0.79,-7.73,-5.89,0,*62
1530043448.35,38515,16.38,74036.5,-0.81,-7.73,-6.05,0,*63
1530043449.56,38516,16.38,74036.3,-0.81,-7.77,-6.05,0,*64
1530043450.75,38517,16.38,74038.8,-0.81,-7.87,-6.05,0,*6A
1530043451.94,38518,16.38,74038.5,-0.81,-7.87,-6.13,0,*62
1530043453.16,38519,16.38,74036.0,-0.81,-7.87,-6.19,0,*69
1530043454.41,38520,16.38,74036.8,-0.81,-7.99,-6.19,0,*6C
1530043455.65,38521,16.38,74034.8,-0.81,-7.99,-6.27,0,*60
1530043456.87,38522,16.38,74038.3,-0.81,-8.03,-6.31,0,*68
1530043458.06,38523,16.38,74038.3,-0.81,-8.17,-6.39,0,*64
1530043459.28,38524,16.38,74032.8,-0.83,-8.17,-6.51,0,*6F
1530043460.5,38525,16.38,74038.8,-0.83,-8.29,-6.51,0,*63
1530043461.72,38526,16.38,74036.3,-0.83,-8.29,-6.55,0,*64
1530043462.91,38527,16.38,74036.3,-0.81,-8.33,-6.55,0,*6C
1530043464.1,38528,16.38,74036.5,-0.81,-8.41,-6.69,0,*69
1530043465.29,38529,16.38,74038.8,-0.81,-8.41,-6.69,0,*68
1530043466.48,38530,16.38,74036.0,-0.81,-8.41,-6.73,0,*6B
1530043467.68,38531,16.38,74034.8,-0.81,-8.55,-6.73,0,*6F
1530043468.9,38532,16.38,74036.5,-0.83,-8.55,-6.81,0,*63
1530043470.13,38533,16.38,74032.5,-0.83,-8.55,-6.85,0,*66
1530043471.37,38534,16.38,74034.5,-0.83,-8.59,-6.93,0,*6A
1530043472.61,38535,16.38,74036.3,-0.83,-8.67,-6.93,0,*66
1530043473.87,38536,16.38,74034.8,-0.83,-8.81,-7.05,0,*63
1530043475.1,38537,16.38,74038.0,-0.83,-8.71,-7.11,0,*68
1530043476.35,38538,16.38,74036.8,-0.83,-8.81,-7.11,0,*68
1530043477.58,38539,16.38,74038.5,-0.83,-8.93,-7.19,0,*62
1530043478.79,38540,16.38,74032.5,-0.85,-8.97,-7.23,0,*67
1530043480.04,38541,16.38,74032.3,-0.83,-8.97,-7.31,0,*63
1530043481.26,38542,16.38,74038.5,-0.81,-8.97,-7.39,0,*6A
1530043482.48,38543,16.38,74038.8,-0.83,-9.05,-7.53,0,*6F
1530043483.7,38544,16.38,74032.0,-0.83,-9.05,-7.53,0,*68
1530043484.97,38545,16.38,74036.8,-0.85,-9.15,-7.61,0,*6F
1530043486.22,38546,16.38,74032.3,-0.83,-8.97,-7.61,0,*61
1530043487.47,38547,16.38,74032.8,-0.83,-8.93,-7.65,0,*60
1530043488.72,38548,16.38,74032.3,-0.83,-8.93,-7.65,0,*6F
1530043489.97,38549,16.38,74036.5,-0.85,-8.89,-7.65,0,*63
1530043491.23,38550,16.38,74034.5,-0.83,-8.81,-7.65,0,*65
1530043492.49,38551,16.38,74034.8,-0.83,-8.85,-7.65,0,*60
1530043493.74,38552,16.38,74036.8,-0.83,-8.85,-7.61,0,*67
1530043495.01,38553,16.38,74032.8,-0.83,-8.81,-7.73,0,*61
1530043496.27,38554,16.38,74032.8,-0.83,-8.85,-7.73,0,*62
1530043497.49,38555,16.38,74036.3,-0.85,-8.89,-7.83,0,*66
1530043498.74,38556,16.38,74036.3,-0.83,-8.85,-7.77,0,*64
1530043499.98,38557,16.38,74036.3,-0.85,-8.89,-7.91,0,*67
1530043501.22,38558,16.38,74038.5,-0.85,-9.01,-7.95,0,*6D
1530043502.47,38559,16.38,74032.3,-0.83,-8.97,-7.91,0,*60
1530043503.71,38560,16.38,74034.3,-0.85,-9.01,-8.03,0,*66
1530043504.95,38561,16.38,74036.0,-0.85,-9.01,-8.07,0,*63
1530043506.17,38562,16.38,74034.3,-0.85,-9.19,-8.17,0,*68
1530043507.41,38563,16.38,74036.0,-0.85,-9.15,-8.21,0,*60
1530043508.62,38564,16.38,74032.3,-0.89,-9.05,-8.25,0,*6E
1530043509.86,38565,16.38,74032.5,-0.85,-9.11,-8.21,0,*62
1530043511.08,38566,16.38,74032.8,-0.85,-9.01,-8.21,0,*60
1530043512.32,38567,16.38,74032.3,-0.85,-9.11,-8.17,0,*65
1530043513.56,38568,16.38,74032.3,-0.85,-9.01,-8.03,0,*6E
1530043514.81,38569,16.38,74034.3,-0.89,-9.01,-8.11,0,*60
1530043516.02,38570,16.38,74032.5,-0.85,-8.89,-8.17,0,*63
1530043517.24,38571,16.38,74032.8,-0.85,-8.89,-8.17,0,*62
1530043518.44,38572,16.38,74034.5,-0.85,-8.97,-8.29,0,*63
1530043519.66,38573,16.38,74032.3,-0.85,-8.89,-8.29,0,*6D
1530043520.87,38574,16.38,74038.5,-0.85,-8.89,-8.33,0,*61
1530043522.08,38575,16.38,74034.3,-0.85,-8.97,-8.29,0,*64
1530043523.29,38576,16.38,74034.5,-0.85,-8.89,-8.29,0,*68
1530043524.5,38577,16.38,74032.0,-0.85,-8.85,-8.33,0,*6E
1530043525.72,38578,16.38,74032.8,-0.85,-8.89,-8.29,0,*66
1530043526.94,38579,16.38,74034.3,-0.85,-8.89,-8.37,0,*68
1530043528.16,38580,16.38,74032.0,-0.85,-8.89,-8.45,0,*6B
1530043529.38,38581,16.38,74032.0,-0.85,-8.85,-8.37,0,*63
1530043530.6,38582,16.38,74034.8,-0.85,-8.75,-8.37,0,*6F
1530043531.81,38583,16.38,74032.0,-0.85,-8.71,-8.29,0,*65
1530043533.02,38584,16.38,74034.3,-0.85,-8.71,-8.33,0,*69
1530043534.23,38585,16.38,74038.5,-0.89,-8.75,-8.37,0,*64
1530043535.44,38586,16.38,74034.0,-0.89,-8.75,-8.33,0,*63
1530043536.65,38587,16.38,74034.8,-0.85,-8.63,-8.29,0,*62
1530043537.87,38588,16.38,74034.8,-0.85,-8.63,-8.37,0,*62
1530043539.08,38589,16.38,74032.8,-0.83,-8.67,-8.29,0,*6E
1530043540.3,38590,16.38,74032.0,-0.85,-8.71,-8.37,0,*68
1530043541.52,38591,16.38,74032.3,-0.85,-8.85,-8.33,0,*66
1530043542.73,38592,16.38,74034.0,-0.85,-8.97,-8.45,0,*67
1530043543.94,38593,16.38,74032.8,-0.89,-8.93,-8.63,0,*6A
1530043545.15,38594,16.38,74034.5,-0.89,-9.01,-8.63,0,*67
1530043546.37,38595,16.38,74036.3,-0.89,-9.01,-8.63,0,*66
1530043547.58,38596,16.38,74036.0,-0.89,-9.01,-8.63,0,*65
1530043548.79,38597,16.38,74032.0,-0.89,-8.89,-8.67,0,*61
1530043550.0,38598,16.38,74032.0,-0.89,-8.89,-8.67,0,*6E
1530043551.19,38599,16.38,74032.8,-0.91,-8.93,-8.75,0,*6E
1530043552.41,38600,16.38,74034.0,-0.89,-9.01,-8.89,0,*6D
1530043553.63,38601,16.38,74032.0,-0.89,-9.01,-8.89,0,*6C
1530043554.86,38602,16.38,74034.3,-0.89,-9.01,-9.01,0,*6E
1530043556.1,38603,16.38,74034.5,-0.89,-9.01,-9.15,0,*6A
1530043557.31,38604,16.38,74032.3,-0.89,-9.05,-9.19,0,*65
1530043558.52,38605,16.38,74034.0,-0.89,-9.01,-9.31,0,*6A
1530043559.77,38606,16.38,74032.3,-0.89,-8.93,-9.37,0,*65
1530043561.01,38607,16.38,74034.5,-0.89,-8.93,-9.45,0,*61
1530043562.27,38608,16.38,74034.0,-0.89,-8.81,-9.49,0,*61
1530043563.53,38609,16.38,74032.3,-0.89,-8.81,-9.61,0,*6A
1530043564.73,38610,16.38,74032.8,-0.91,-8.63,-9.71,0,*66
1530043565.94,38611,16.38,74034.0,-0.89,-8.55,-9.71,0,*6B
1530043567.16,38612,16.38,74032.3,-0.89,-8.41,-9.75,0,*69
1530043568.37,38613,16.38,74032.8,-0.91,-8.33,-9.83,0,*6D
1530043569.58,38614,16.38,74032.3,-0.91,-8.21,-9.83,0,*69
1530043570.85,38615,16.38,74032.8,-0.89,-7.95,-9.83,0,*61
1530043572.04,38616,16.38,74034.8,-0.91,-7.83,-9.75,0,*65
1530043573.25,38617,16.38,74034.3,-0.89,-7.49,-9.71,0,*6F
1530043574.48,38618,16.38,74036.0,-0.91,-7.27,-9.57,0,*65
1530043575.74,38619,16.38,74034.3,-0.89,-7.05,-9.57,0,*6D
1530043576.98,38620,16.38,74032.8,-0.91,-7.01,-9.45,0,*69
1530043578.19,38621,16.38,74032.3,-0.89,-6.81,-9.31,0,*6B
1530043579.38,38622,16.38,74032.8,-0.91,-6.59,-9.19,0,*6E
1530043580.59,38623,16.38,74032.0,-0.89,-6.47,-9.05,0,*64
1530043581.83,38624,16.38,74032.0,-0.89,-6.23,-8.89,0,*64
1530043583.02,38625,16.38,74034.3,-0.91,-6.09,-8.75,0,*67
1530043584.22,38626,16.38,74032.8,-0.89,-5.97,-8.55,0,*6B
1530043585.46,38627,16.38,74032.8,-0.89,-5.77,-8.37,0,*60
1530043586.68,38628,16.38,74034.0,-0.91,-5.61,-8.21,0,*66
1530043587.9,38629,16.38,74032.5,-0.91,-5.47,-8.07,0,*67
1530043589.09,38630,16.38,74034.8,-0.91,-5.43,-7.87,0,*6C
1530043590.32,38631,16.38,74034.5,-0.89,-5.35,-7.69,0,*65
1530043591.59,38632,16.38,74032.8,-0.89,-5.23,-7.39,0,*64
1530043592.8,38633,16.38,74032.8,-0.91,-5.19,-7.19,0,*67
1530043594.03,38634,16.38,74032.0,-0.91,-5.11,-7.05,0,*65
1530043595.3,38635,16.38,74034.0,-0.89,-5.07,-7.01,0,*6E
1530043596.48,38636,16.38,74030.0,-0.91,-4.99,-6.89,0,*63
1530043597.74,38637,16.38,74034.0,-0.89,-4.93,-6.63,0,*65
1530043598.97,38638,16.38,74030.5,-0.89,-4.89,-6.51,0,*60
1530043600.21,38639,16.38,74030.3,-0.89,-4.89,-6.39,0,*6F
1530043601.44,38640,16.38,74032.8,-0.91,-4.77,-6.27,0,*66
1530043602.67,38641,16.38,74034.5,-0.89,-4.81,-6.13,0,*60
1530043603.89,38642,16.38,74032.5,-0.89,-4.69,-6.09,0,*6E
1530043605.1,38643,16.38,74034.0,-0.89,-4.65,-5.97,0,*67
1530043606.34,38644,16.38,74032.3,-0.89,-4.65,-5.89,0,*6F
1530043607.57,38645,16.38,74032.5,-0.89,-4.65,-5.77,0,*6F
1530043608.81,38646,16.38,74032.0,-0.89,-4.57,-5.69,0,*62
1530043610.05,38647,16.38,74034.5,-0.89,-4.57,-5.69,0,*63
1530043611.29,38648,16.38,74034.0,-0.89,-4.57,-5.61,0,*64
1530043612.49,38649,16.38,74032.5,-0.91,-4.57,-5.55,0,*6B
1530043613.7,38650,16.38,74032.5,-0.89,-4.53,-5.47,0,*6D
1530043614.91,38651,16.38,74032.3,-0.89,-4.53,-5.43,0,*68
1530043616.09,38652,16.38,74030.8,-0.91,-4.53,-5.43,0,*62
1530043617.3,38653,16.38,74034.3,-0.89,-4.53,-5.35,0,*6B
1530043618.53,38654,16.38,74032.8,-0.89,-4.45,-5.31,0,*6F
1530043619.74,38655,16.38,74032.3,-0.89,-4.45,-5.35,0,*6A
1530043620.97,38656,16.38,74032.3,-0.89,-4.45,-5.31,0,*6D
1530043622.21,38657,16.38,74034.3,-0.89,-4.41,-5.19,0,*62
1530043623.45,38658,16.38,74034.3,-0.89,-4.41,-5.19,0,*6D
1530043624.69,38659,16.38,74032.8,-0.89,-4.29,-5.11,0,*6A
1530043625.92,38660,16.38,74030.5,-0.85,-4.37,-5.15,0,*67
1530043627.17,38661,16.38,74032.8,-0.85,-4.25,-5.03,0,*62
1530043628.41,38662,16.38,74032.8,-0.85,-4.29,-5.07,0,*69
1530043629.66,38663,16.38,74030.5,-0.85,-4.29,-5.03,0,*6C
1530043630.9,38664,16.38,74034.0,-0.85,-4.29,-5.03,0,*6B
1530043632.15,38665,16.38,74030.5,-0.85,-4.25,-5.03,0,*66
1530043633.4,38666,16.38,74030.3,-0.83,-4.25,-4.89,0,*60
1530043634.63,38667,16.38,74032.3,-0.85,-4.29,-4.93,0,*60
1530043635.85,38668,16.38,74028.8,-0.89,-4.33,-4.99,0,*62
1530043637.08,38669,16.38,74032.0,-0.85,-4.25,-4.93,0,*62
1530043638.33,38670,16.38,74034.0,-0.85,-4.25,-4.89,0,*61
1530043639.57,38671,16.38,74030.8,-0.83,-4.13,-4.73,0,*66
1530043640.81,38672,16.38,74032.3,-0.85,-4.17,-4.73,0,*67
1530043642.05,38673,16.38,74032.8,-0.83,-4.13,-4.69,0,*6F
1530043643.29,38674,16.38,74034.3,-0.85,-4.13,-4.77,0,*61
1530043644.53,38675,16.38,74034.3,-0.83,-4.09,-4.73,0,*69
1530043645.78,38676,16.38,74032.0,-0.83,-4.09,-4.73,0,*6A
1530043647.03,38677,16.38,74028.8,-0.83,-4.09,-4.81,0,*66
1530043648.26,38678,16.38,74034.5,-0.85,-4.13,-4.77,0,*6D
1530043649.51,38679,16.38,74030.3,-0.83,-4.13,-4.69,0,*65
1530043650.76,38680,16.38,74028.0,-0.83,-4.13,-4.69,0,*63
1530043652.01,38681,16.38,74034.3,-0.83,-4.21,-4.69,0,*63
1530043653.25,38682,16.38,74028.8,-0.83,-4.09,-4.73,0,*61
1530043654.5,38683,16.38,74032.3,-0.83,-4.13,-4.73,0,*6B
1530043655.75,38684,16.38,74030.5,-0.83,-4.21,-4.81,0,*60
1530043657.0,38685,16.38,74034.5,-0.83,-4.21,-4.73,0,*6C
1530043658.26,38686,16.38,74032.0,-0.83,-4.25,-4.81,0,*66
1530043659.51,38687,16.38,74038.0,-0.83,-4.25,-4.81,0,*67
1530043660.73,38688,16.38,74034.5,-0.81,-4.21,-4.81,0,*6E
1530043661.96,38689,16.38,74032.3,-0.81,-4.25,-4.81,0,*6B
1530043663.21,38690,16.38,74030.0,-0.83,-4.21,-4.85,0,*61
1530043664.44,38691,16.38,74032.8,-0.81,-4.25,-4.89,0,*6A
1530043665.69,38692,16.38,74034.0,-0.83,-4.33,-4.89,0,*6C
1530043666.94,38693,16.38,74030.8,-0.83,-4.33,-4.89,0,*6D
1530043668.18,38694,16.38,74032.0,-0.83,-4.37,-4.89,0,*6E
1530043669.42,38695,16.38,74030.8,-0.83,-4.37,-4.89,0,*6F
1530043670.64,38696,16.38,74028.8,-0.81,-4.37,-4.85,0,*62
1530043671.86,38697,16.38,74030.8,-0.81,-4.37,-4.89,0,*6F
1530043673.04,38698,16.38,74032.3,-0.81,-4.45,-4.99,0,*64
1530043674.25,38699,16.38,74032.3,-0.81,-4.45,-4.89,0,*64
1530043675.44,38700,16.38,74030.3,-0.81,-4.45,-4.99,0,*64
1530043676.62,38701,16.38,74032.3,-0.81,-4.49,-4.99,0,*69
1530043677.81,38702,16.38,74034.0,-0.81,-4.49,-4.99,0,*6A
1530043679.03,38703,16.38,74030.0,-0.81,-4.49,-5.03,0,*69
1530043680.25,38704,16.38,74032.0,-0.81,-4.49,-5.03,0,*6E
1530043681.47,38705,16.38,74032.3,-0.81,-4.49,-5.03,0,*6F
1530043682.69,38706,16.38,74034.0,-0.81,-4.53,-5.07,0,*63
1530043683.91,38707,16.38,74030.3,-0.81,-4.57,-5.11,0,*61
1530043685.13,38708,16.38,74032.8,-0.81,-4.61,-5.11,0,*6B
1530043686.37,38709,16.38,74034.8,-0.81,-4.69,-5.11,0,*62
1530043687.61,38710,16.38,74032.3,-0.81,-4.69,-5.15,0,*6E
1530043688.85,38711,16.38,74030.5,-0.81,-4.69,-5.15,0,*6F
1530043690.09,38712,16.38,74032.8,-0.81,-4.69,-5.15,0,*6C
1530043691.32,38713,16.38,74032.5,-0.81,-4.69,-5.15,0,*6D
1530043692.59,38714,16.38,74028.5,-0.79,-4.69,-5.19,0,*61
1530043693.83,38715,16.38,74032.0,-0.81,-4.73,-5.23,0,*65
1530043695.1,38716,16.38,74032.8,-0.79,-4.77,-5.23,0,*65
1530043696.31,38717,16.38,74030.8,-0.81,-4.85,-5.35,0,*69
1530043697.52,38718,16.38,74030.3,-0.81,-4.85,-5.39,0,*6A
1530043698.73,38719,16.38,74034.0,-0.81,-4.85,-5.39,0,*6B
1530043699.96,38720,16.38,74032.5,-0.79,-4.93,-5.35,0,*6D
1530043701.17,38721,16.38,74032.5,-0.81,-4.93,-5.43,0,*6A
1530043702.4,38722,16.38,74032.8,-0.79,-4.93,-5.43,0,*6E
1530043703.59,38723,16.38,74034.5,-0.81,-4.99,-5.47,0,*66
1530043704.81,38724,16.38,74030.8,-0.81,-5.11,-5.51,0,*67
1530043706.03,38725,16.38,74032.8,-0.81,-5.15,-5.51,0,*62